owner,sensor,date,latitude,longitude,sea_surface_height_above_sea_level,qcFlag 
COMPS,ioos:station:USF.COMPS:SHP:1,2014-06-01T00:00:00Z,30.0600,-84.2910,0.017,1111122 
COMPS,ioos:station:USF.COMPS:SHP:1,2014-06-01T00:06:00Z,30.0600,-84.2910,-0.013,1111122 
COMPS,ioos:station:USF.COMPS:SHP:1,2014-06-01T00:12:00Z,30.0600,-84.2910,-0.036,1111122 
COMPS,ioos:station:USF.COMPS:SHP:1,2014-06-01T00:18:00Z,30.0600,-84.2910,-0.057,1111122 
COMPS,ioos:station:USF.COMPS:SHP:1,2014-06-01T00:24:00Z,30.0600,-84.2910,-0.082,1111122 
COMPS,ioos:station:USF.COMPS:SHP:1,2014-06-01T00:30:00Z,30.0600,-84.2910,-0.108,1111122 
COMPS,ioos:station:USF.COMPS:SHP:1,2014-06-01T00:36:00Z,30.0600,-84.2910,-0.129,1111122 
COMPS,ioos:station:USF.COMPS:SHP:1,2014-06-01T00:42:00Z,30.0600,-84.2910,-0.148,1111122 
COMPS,ioos:station:USF.COMPS:SHP:1,2014-06-01T00:48:00Z,30.0600,-84.2910,-0.16,1111122 
COMPS,ioos:station:USF.COMPS:SHP:1,2014-06-01T00:54:00Z,30.0600,-84.2910,-0.155,1111122 
COMPS,ioos:station:USF.COMPS:SHP:1,2014-06-01T01:00:00Z,30.0600,-84.2910,-0.167,1111122 
COMPS,ioos:station:USF.COMPS:SHP:1,2014-06-01T01:06:00Z,30.0600,-84.2910,-0.189,1111122 
COMPS,ioos:station:USF.COMPS:SHP:1,2014-06-01T01:12:00Z,30.0600,-84.2910,-0.2,1111122 
COMPS,ioos:station:USF.COMPS:SHP:1,2014-06-01T01:18:00Z,30.0600,-84.2910,-0.203,1111122 
COMPS,ioos:station:USF.COMPS:SHP:1,2014-06-01T01:24:00Z,30.0600,-84.2910,-0.224,1111122 
COMPS,ioos:station:USF.COMPS:SHP:1,2014-06-01T01:30:00Z,30.0600,-84.2910,-0.267,1111122 
COMPS,ioos:station:USF.COMPS:SHP:1,2014-06-01T01:36:00Z,30.0600,-84.2910,-0.296,1111122 
COMPS,ioos:station:USF.COMPS:SHP:1,2014-06-01T01:42:00Z,30.0600,-84.2910,-0.312,1111122 
COMPS,ioos:station:USF.COMPS:SHP:1,2014-06-01T01:48:00Z,30.0600,-84.2910,-0.333,1111122 
COMPS,ioos:station:USF.COMPS:SHP:1,2014-06-01T01:54:00Z,30.0600,-84.2910,-0.353,1111122 
COMPS,ioos:station:USF.COMPS:SHP:1,2014-06-01T02:00:00Z,30.0600,-84.2910,-0.371,1111122 
COMPS,ioos:station:USF.COMPS:SHP:1,2014-06-01T02:06:00Z,30.0600,-84.2910,-0.389,1111122 
COMPS,ioos:station:USF.COMPS:SHP:1,2014-06-01T02:12:00Z,30.0600,-84.2910,-0.41,1111122 
COMPS,ioos:station:USF.COMPS:SHP:1,2014-06-01T02:18:00Z,30.0600,-84.2910,-0.432,1111122 
COMPS,ioos:station:USF.COMPS:SHP:1,2014-06-01T02:24:00Z,30.0600,-84.2910,-0.452,1111122 
COMPS,ioos:station:USF.COMPS:SHP:1,2014-06-01T02:30:00Z,30.0600,-84.2910,-0.471,1111122 
COMPS,ioos:station:USF.COMPS:SHP:1,2014-06-01T02:36:00Z,30.0600,-84.2910,-0.491,1111122 
COMPS,ioos:station:USF.COMPS:SHP:1,2014-06-01T02:42:00Z,30.0600,-84.2910,-0.509,1111122 
COMPS,ioos:station:USF.COMPS:SHP:1,2014-06-01T02:48:00Z,30.0600,-84.2910,-0.526,1111122 
COMPS,ioos:station:USF.COMPS:SHP:1,2014-06-01T02:54:00Z,30.0600,-84.2910,-0.541,1111122 
COMPS,ioos:station:USF.COMPS:SHP:1,2014-06-01T03:00:00Z,30.0600,-84.2910,-0.551,1111122 
COMPS,ioos:station:USF.COMPS:SHP:1,2014-06-01T03:06:00Z,30.0600,-84.2910,-0.554,1111122 
COMPS,ioos:station:USF.COMPS:SHP:1,2014-06-01T03:12:00Z,30.0600,-84.2910,-0.557,1111122 
COMPS,ioos:station:USF.COMPS:SHP:1,2014-06-01T03:18:00Z,30.0600,-84.2910,-0.562,1111122 
COMPS,ioos:station:USF.COMPS:SHP:1,2014-06-01T03:24:00Z,30.0600,-84.2910,-0.564,1111122 
COMPS,ioos:station:USF.COMPS:SHP:1,2014-06-01T03:30:00Z,30.0600,-84.2910,-0.558,1111122 
COMPS,ioos:station:USF.COMPS:SHP:1,2014-06-01T03:36:00Z,30.0600,-84.2910,-0.549,1111122 
COMPS,ioos:station:USF.COMPS:SHP:1,2014-06-01T03:42:00Z,30.0600,-84.2910,-0.547,1111122 
COMPS,ioos:station:USF.COMPS:SHP:1,2014-06-01T03:48:00Z,30.0600,-84.2910,-0.553,1111122 
COMPS,ioos:station:USF.COMPS:SHP:1,2014-06-01T03:54:00Z,30.0600,-84.2910,-0.553,1111122 
COMPS,ioos:station:USF.COMPS:SHP:1,2014-06-01T04:00:00Z,30.0600,-84.2910,-0.544,1111122 
COMPS,ioos:station:USF.COMPS:SHP:1,2014-06-01T04:06:00Z,30.0600,-84.2910,-0.535,1111122 
COMPS,ioos:station:USF.COMPS:SHP:1,2014-06-01T04:12:00Z,30.0600,-84.2910,-0.532,1111122 
COMPS,ioos:station:USF.COMPS:SHP:1,2014-06-01T04:18:00Z,30.0600,-84.2910,-0.527,1111122 
COMPS,ioos:station:USF.COMPS:SHP:1,2014-06-01T04:24:00Z,30.0600,-84.2910,-0.515,1111122 
COMPS,ioos:station:USF.COMPS:SHP:1,2014-06-01T04:30:00Z,30.0600,-84.2910,-0.504,1111122 
COMPS,ioos:station:USF.COMPS:SHP:1,2014-06-01T04:36:00Z,30.0600,-84.2910,-0.496,1111122 
COMPS,ioos:station:USF.COMPS:SHP:1,2014-06-01T04:42:00Z,30.0600,-84.2910,-0.484,1111122 
COMPS,ioos:station:USF.COMPS:SHP:1,2014-06-01T04:48:00Z,30.0600,-84.2910,-0.458,1111122 
COMPS,ioos:station:USF.COMPS:SHP:1,2014-06-01T04:54:00Z,30.0600,-84.2910,-0.43,1111122 
COMPS,ioos:station:USF.COMPS:SHP:1,2014-06-01T05:00:00Z,30.0600,-84.2910,-0.411,1111122 
COMPS,ioos:station:USF.COMPS:SHP:1,2014-06-01T05:06:00Z,30.0600,-84.2910,-0.388,1111122 
COMPS,ioos:station:USF.COMPS:SHP:1,2014-06-01T05:12:00Z,30.0600,-84.2910,-0.358,1111122 
COMPS,ioos:station:USF.COMPS:SHP:1,2014-06-01T05:18:00Z,30.0600,-84.2910,-0.33,1111122 
COMPS,ioos:station:USF.COMPS:SHP:1,2014-06-01T05:24:00Z,30.0600,-84.2910,-0.307,1111122 
COMPS,ioos:station:USF.COMPS:SHP:1,2014-06-01T05:30:00Z,30.0600,-84.2910,-0.286,1111122 
COMPS,ioos:station:USF.COMPS:SHP:1,2014-06-01T05:36:00Z,30.0600,-84.2910,-0.265,1111122 
COMPS,ioos:station:USF.COMPS:SHP:1,2014-06-01T05:42:00Z,30.0600,-84.2910,-0.245,1111122 
COMPS,ioos:station:USF.COMPS:SHP:1,2014-06-01T05:48:00Z,30.0600,-84.2910,-0.228,1111122 
COMPS,ioos:station:USF.COMPS:SHP:1,2014-06-01T05:54:00Z,30.0600,-84.2910,-0.199,1111122 
COMPS,ioos:station:USF.COMPS:SHP:1,2014-06-01T06:00:00Z,30.0600,-84.2910,-0.159,1111122 
COMPS,ioos:station:USF.COMPS:SHP:1,2014-06-01T06:06:00Z,30.0600,-84.2910,-0.12,1111122 
COMPS,ioos:station:USF.COMPS:SHP:1,2014-06-01T06:12:00Z,30.0600,-84.2910,-0.081,1111122 
COMPS,ioos:station:USF.COMPS:SHP:1,2014-06-01T06:18:00Z,30.0600,-84.2910,-0.046,1111122 
COMPS,ioos:station:USF.COMPS:SHP:1,2014-06-01T06:24:00Z,30.0600,-84.2910,-0.018,1111122 
COMPS,ioos:station:USF.COMPS:SHP:1,2014-06-01T06:30:00Z,30.0600,-84.2910,0.012,1111122 
COMPS,ioos:station:USF.COMPS:SHP:1,2014-06-01T06:36:00Z,30.0600,-84.2910,0.041,1111122 
COMPS,ioos:station:USF.COMPS:SHP:1,2014-06-01T06:42:00Z,30.0600,-84.2910,0.069,1111122 
COMPS,ioos:station:USF.COMPS:SHP:1,2014-06-01T06:48:00Z,30.0600,-84.2910,0.101,1111122 
COMPS,ioos:station:USF.COMPS:SHP:1,2014-06-01T06:54:00Z,30.0600,-84.2910,0.132,1111122 
COMPS,ioos:station:USF.COMPS:SHP:1,2014-06-01T07:00:00Z,30.0600,-84.2910,0.165,1111122 
COMPS,ioos:station:USF.COMPS:SHP:1,2014-06-01T07:06:00Z,30.0600,-84.2910,0.195,1111122 
COMPS,ioos:station:USF.COMPS:SHP:1,2014-06-01T07:12:00Z,30.0600,-84.2910,0.221,1111122 
COMPS,ioos:station:USF.COMPS:SHP:1,2014-06-01T07:18:00Z,30.0600,-84.2910,0.241,1111122 
COMPS,ioos:station:USF.COMPS:SHP:1,2014-06-01T07:24:00Z,30.0600,-84.2910,0.259,1111122 
COMPS,ioos:station:USF.COMPS:SHP:1,2014-06-01T07:30:00Z,30.0600,-84.2910,0.276,1111122 
COMPS,ioos:station:USF.COMPS:SHP:1,2014-06-01T07:36:00Z,30.0600,-84.2910,0.293,1111122 
COMPS,ioos:station:USF.COMPS:SHP:1,2014-06-01T07:42:00Z,30.0600,-84.2910,0.314,1111122 
COMPS,ioos:station:USF.COMPS:SHP:1,2014-06-01T07:48:00Z,30.0600,-84.2910,0.333,1111122 
COMPS,ioos:station:USF.COMPS:SHP:1,2014-06-01T07:54:00Z,30.0600,-84.2910,0.352,1111122 
COMPS,ioos:station:USF.COMPS:SHP:1,2014-06-01T08:00:00Z,30.0600,-84.2910,0.364,1111122 
COMPS,ioos:station:USF.COMPS:SHP:1,2014-06-01T08:06:00Z,30.0600,-84.2910,0.384,1111122 
COMPS,ioos:station:USF.COMPS:SHP:1,2014-06-01T08:12:00Z,30.0600,-84.2910,0.404,1111122 
COMPS,ioos:station:USF.COMPS:SHP:1,2014-06-01T08:18:00Z,30.0600,-84.2910,0.417,1111122 
COMPS,ioos:station:USF.COMPS:SHP:1,2014-06-01T08:24:00Z,30.0600,-84.2910,0.426,1111122 
COMPS,ioos:station:USF.COMPS:SHP:1,2014-06-01T08:30:00Z,30.0600,-84.2910,0.438,1111122 
COMPS,ioos:station:USF.COMPS:SHP:1,2014-06-01T08:36:00Z,30.0600,-84.2910,0.454,1111122 
COMPS,ioos:station:USF.COMPS:SHP:1,2014-06-01T08:42:00Z,30.0600,-84.2910,0.464,1111122 
COMPS,ioos:station:USF.COMPS:SHP:1,2014-06-01T08:48:00Z,30.0600,-84.2910,0.476,1111122 
COMPS,ioos:station:USF.COMPS:SHP:1,2014-06-01T08:54:00Z,30.0600,-84.2910,0.483,1111122 
COMPS,ioos:station:USF.COMPS:SHP:1,2014-06-01T09:00:00Z,30.0600,-84.2910,0.479,1111122 
COMPS,ioos:station:USF.COMPS:SHP:1,2014-06-01T09:06:00Z,30.0600,-84.2910,0.482,1111122 
COMPS,ioos:station:USF.COMPS:SHP:1,2014-06-01T09:12:00Z,30.0600,-84.2910,0.495,1111122 
COMPS,ioos:station:USF.COMPS:SHP:1,2014-06-01T09:18:00Z,30.0600,-84.2910,0.499,1111122 
COMPS,ioos:station:USF.COMPS:SHP:1,2014-06-01T09:24:00Z,30.0600,-84.2910,0.516,1111122 
COMPS,ioos:station:USF.COMPS:SHP:1,2014-06-01T09:30:00Z,30.0600,-84.2910,0.522,1111122 
COMPS,ioos:station:USF.COMPS:SHP:1,2014-06-01T09:36:00Z,30.0600,-84.2910,0.505,1111122 
COMPS,ioos:station:USF.COMPS:SHP:1,2014-06-01T09:42:00Z,30.0600,-84.2910,0.497,1111122 
COMPS,ioos:station:USF.COMPS:SHP:1,2014-06-01T09:48:00Z,30.0600,-84.2910,0.501,1111122 
COMPS,ioos:station:USF.COMPS:SHP:1,2014-06-01T09:54:00Z,30.0600,-84.2910,0.496,1111122 
COMPS,ioos:station:USF.COMPS:SHP:1,2014-06-01T10:00:00Z,30.0600,-84.2910,0.495,1111122 
COMPS,ioos:station:USF.COMPS:SHP:1,2014-06-01T10:06:00Z,30.0600,-84.2910,0.498,1111122 
COMPS,ioos:station:USF.COMPS:SHP:1,2014-06-01T10:12:00Z,30.0600,-84.2910,0.488,1111122 
COMPS,ioos:station:USF.COMPS:SHP:1,2014-06-01T10:18:00Z,30.0600,-84.2910,0.478,1111122 
COMPS,ioos:station:USF.COMPS:SHP:1,2014-06-01T10:24:00Z,30.0600,-84.2910,0.481,1111122 
COMPS,ioos:station:USF.COMPS:SHP:1,2014-06-01T10:30:00Z,30.0600,-84.2910,0.481,1111122 
COMPS,ioos:station:USF.COMPS:SHP:1,2014-06-01T10:36:00Z,30.0600,-84.2910,0.475,1111122 
COMPS,ioos:station:USF.COMPS:SHP:1,2014-06-01T10:42:00Z,30.0600,-84.2910,0.476,1111122 
COMPS,ioos:station:USF.COMPS:SHP:1,2014-06-01T10:48:00Z,30.0600,-84.2910,0.472,1111122 
COMPS,ioos:station:USF.COMPS:SHP:1,2014-06-01T10:54:00Z,30.0600,-84.2910,0.453,1111122 
COMPS,ioos:station:USF.COMPS:SHP:1,2014-06-01T11:00:00Z,30.0600,-84.2910,0.447,1111122 
COMPS,ioos:station:USF.COMPS:SHP:1,2014-06-01T11:06:00Z,30.0600,-84.2910,0.437,1111122 
COMPS,ioos:station:USF.COMPS:SHP:1,2014-06-01T11:12:00Z,30.0600,-84.2910,0.417,1111122 
COMPS,ioos:station:USF.COMPS:SHP:1,2014-06-01T11:18:00Z,30.0600,-84.2910,0.409,1111122 
COMPS,ioos:station:USF.COMPS:SHP:1,2014-06-01T11:24:00Z,30.0600,-84.2910,0.402,1111122 
COMPS,ioos:station:USF.COMPS:SHP:1,2014-06-01T11:30:00Z,30.0600,-84.2910,0.385,1111122 
COMPS,ioos:station:USF.COMPS:SHP:1,2014-06-01T11:36:00Z,30.0600,-84.2910,0.371,1111122 
COMPS,ioos:station:USF.COMPS:SHP:1,2014-06-01T11:42:00Z,30.0600,-84.2910,0.365,1111122 
COMPS,ioos:station:USF.COMPS:SHP:1,2014-06-01T11:48:00Z,30.0600,-84.2910,0.35,1111122 
COMPS,ioos:station:USF.COMPS:SHP:1,2014-06-01T11:54:00Z,30.0600,-84.2910,0.322,1111122 
COMPS,ioos:station:USF.COMPS:SHP:1,2014-06-01T12:00:00Z,30.0600,-84.2910,0.309,1111122 
COMPS,ioos:station:USF.COMPS:SHP:1,2014-06-01T12:06:00Z,30.0600,-84.2910,0.3,1111122 
COMPS,ioos:station:USF.COMPS:SHP:1,2014-06-01T12:12:00Z,30.0600,-84.2910,0.279,1111122 
COMPS,ioos:station:USF.COMPS:SHP:1,2014-06-01T12:18:00Z,30.0600,-84.2910,0.261,1111122 
COMPS,ioos:station:USF.COMPS:SHP:1,2014-06-01T12:24:00Z,30.0600,-84.2910,0.25,1111122 
COMPS,ioos:station:USF.COMPS:SHP:1,2014-06-01T12:30:00Z,30.0600,-84.2910,0.236,1111122 
COMPS,ioos:station:USF.COMPS:SHP:1,2014-06-01T12:36:00Z,30.0600,-84.2910,0.217,1111122 
COMPS,ioos:station:USF.COMPS:SHP:1,2014-06-01T12:42:00Z,30.0600,-84.2910,0.203,1111122 
COMPS,ioos:station:USF.COMPS:SHP:1,2014-06-01T12:48:00Z,30.0600,-84.2910,0.188,1111122 
COMPS,ioos:station:USF.COMPS:SHP:1,2014-06-01T12:54:00Z,30.0600,-84.2910,0.166,1111122 
COMPS,ioos:station:USF.COMPS:SHP:1,2014-06-01T13:00:00Z,30.0600,-84.2910,0.151,1111122 
COMPS,ioos:station:USF.COMPS:SHP:1,2014-06-01T13:06:00Z,30.0600,-84.2910,0.138,1111122 
COMPS,ioos:station:USF.COMPS:SHP:1,2014-06-01T13:12:00Z,30.0600,-84.2910,0.12,1111122 
COMPS,ioos:station:USF.COMPS:SHP:1,2014-06-01T13:18:00Z,30.0600,-84.2910,0.104,1111122 
COMPS,ioos:station:USF.COMPS:SHP:1,2014-06-01T13:24:00Z,30.0600,-84.2910,0.093,1111122 
COMPS,ioos:station:USF.COMPS:SHP:1,2014-06-01T13:30:00Z,30.0600,-84.2910,0.082,1111122 
COMPS,ioos:station:USF.COMPS:SHP:1,2014-06-01T13:36:00Z,30.0600,-84.2910,0.068,1111122 
COMPS,ioos:station:USF.COMPS:SHP:1,2014-06-01T13:42:00Z,30.0600,-84.2910,0.056,1111122 
COMPS,ioos:station:USF.COMPS:SHP:1,2014-06-01T13:48:00Z,30.0600,-84.2910,0.041,1111122 
COMPS,ioos:station:USF.COMPS:SHP:1,2014-06-01T13:54:00Z,30.0600,-84.2910,0.031,1111122 
COMPS,ioos:station:USF.COMPS:SHP:1,2014-06-01T14:00:00Z,30.0600,-84.2910,0.024,1111122 
COMPS,ioos:station:USF.COMPS:SHP:1,2014-06-01T14:06:00Z,30.0600,-84.2910,0.021,1111122 
COMPS,ioos:station:USF.COMPS:SHP:1,2014-06-01T14:12:00Z,30.0600,-84.2910,0.012,1111122 
COMPS,ioos:station:USF.COMPS:SHP:1,2014-06-01T14:18:00Z,30.0600,-84.2910,-0.002,1111122 
COMPS,ioos:station:USF.COMPS:SHP:1,2014-06-01T14:24:00Z,30.0600,-84.2910,-0.016,1111122 
COMPS,ioos:station:USF.COMPS:SHP:1,2014-06-01T14:30:00Z,30.0600,-84.2910,-0.029,1111122 
COMPS,ioos:station:USF.COMPS:SHP:1,2014-06-01T14:36:00Z,30.0600,-84.2910,-0.04,1111122 
COMPS,ioos:station:USF.COMPS:SHP:1,2014-06-01T14:42:00Z,30.0600,-84.2910,-0.05,1111122 
COMPS,ioos:station:USF.COMPS:SHP:1,2014-06-01T14:48:00Z,30.0600,-84.2910,-0.051,1111122 
COMPS,ioos:station:USF.COMPS:SHP:1,2014-06-01T14:54:00Z,30.0600,-84.2910,-0.051,1111122 
COMPS,ioos:station:USF.COMPS:SHP:1,2014-06-01T15:00:00Z,30.0600,-84.2910,-0.051,1111122 
COMPS,ioos:station:USF.COMPS:SHP:1,2014-06-01T15:06:00Z,30.0600,-84.2910,-0.052,1111122 
COMPS,ioos:station:USF.COMPS:SHP:1,2014-06-01T15:12:00Z,30.0600,-84.2910,-0.053,1111122 
COMPS,ioos:station:USF.COMPS:SHP:1,2014-06-01T15:18:00Z,30.0600,-84.2910,-0.055,1111122 
COMPS,ioos:station:USF.COMPS:SHP:1,2014-06-01T15:24:00Z,30.0600,-84.2910,-0.051,1111122 
COMPS,ioos:station:USF.COMPS:SHP:1,2014-06-01T15:30:00Z,30.0600,-84.2910,-0.037,1111122 
COMPS,ioos:station:USF.COMPS:SHP:1,2014-06-01T15:36:00Z,30.0600,-84.2910,-0.022,1111122 
COMPS,ioos:station:USF.COMPS:SHP:1,2014-06-01T15:42:00Z,30.0600,-84.2910,-0.008,1111122 
COMPS,ioos:station:USF.COMPS:SHP:1,2014-06-01T15:48:00Z,30.0600,-84.2910,-0.002,1111122 
COMPS,ioos:station:USF.COMPS:SHP:1,2014-06-01T15:54:00Z,30.0600,-84.2910,0.004,1111122 
COMPS,ioos:station:USF.COMPS:SHP:1,2014-06-01T16:00:00Z,30.0600,-84.2910,0.011,1111122 
COMPS,ioos:station:USF.COMPS:SHP:1,2014-06-01T16:06:00Z,30.0600,-84.2910,0.018,1111122 
COMPS,ioos:station:USF.COMPS:SHP:1,2014-06-01T16:12:00Z,30.0600,-84.2910,0.024,1111122 
COMPS,ioos:station:USF.COMPS:SHP:1,2014-06-01T16:18:00Z,30.0600,-84.2910,0.03,1111122 
COMPS,ioos:station:USF.COMPS:SHP:1,2014-06-01T16:24:00Z,30.0600,-84.2910,0.042,1111122 
COMPS,ioos:station:USF.COMPS:SHP:1,2014-06-01T16:30:00Z,30.0600,-84.2910,0.051,1111122 
COMPS,ioos:station:USF.COMPS:SHP:1,2014-06-01T16:36:00Z,30.0600,-84.2910,0.065,1111122 
COMPS,ioos:station:USF.COMPS:SHP:1,2014-06-01T16:42:00Z,30.0600,-84.2910,0.08,1111122 
COMPS,ioos:station:USF.COMPS:SHP:1,2014-06-01T16:48:00Z,30.0600,-84.2910,0.085,1111122 
COMPS,ioos:station:USF.COMPS:SHP:1,2014-06-01T16:54:00Z,30.0600,-84.2910,0.09,1111122 
COMPS,ioos:station:USF.COMPS:SHP:1,2014-06-01T17:00:00Z,30.0600,-84.2910,0.102,1111122 
COMPS,ioos:station:USF.COMPS:SHP:1,2014-06-01T17:06:00Z,30.0600,-84.2910,0.119,1111122 
COMPS,ioos:station:USF.COMPS:SHP:1,2014-06-01T17:12:00Z,30.0600,-84.2910,0.134,1111122 
COMPS,ioos:station:USF.COMPS:SHP:1,2014-06-01T17:18:00Z,30.0600,-84.2910,0.144,1111122 
COMPS,ioos:station:USF.COMPS:SHP:1,2014-06-01T17:24:00Z,30.0600,-84.2910,0.154,1111122 
COMPS,ioos:station:USF.COMPS:SHP:1,2014-06-01T17:30:00Z,30.0600,-84.2910,0.168,1111122 
COMPS,ioos:station:USF.COMPS:SHP:1,2014-06-01T17:36:00Z,30.0600,-84.2910,0.179,1111122 
COMPS,ioos:station:USF.COMPS:SHP:1,2014-06-01T17:42:00Z,30.0600,-84.2910,0.193,1111122 
COMPS,ioos:station:USF.COMPS:SHP:1,2014-06-01T17:48:00Z,30.0600,-84.2910,0.212,1111122 
COMPS,ioos:station:USF.COMPS:SHP:1,2014-06-01T17:54:00Z,30.0600,-84.2910,0.233,1111122 
COMPS,ioos:station:USF.COMPS:SHP:1,2014-06-01T18:00:00Z,30.0600,-84.2910,0.247,1111122 
COMPS,ioos:station:USF.COMPS:SHP:1,2014-06-01T18:06:00Z,30.0600,-84.2910,0.268,1111122 
COMPS,ioos:station:USF.COMPS:SHP:1,2014-06-01T18:12:00Z,30.0600,-84.2910,0.291,1111122 
COMPS,ioos:station:USF.COMPS:SHP:1,2014-06-01T18:18:00Z,30.0600,-84.2910,0.309,1111122 
COMPS,ioos:station:USF.COMPS:SHP:1,2014-06-01T18:24:00Z,30.0600,-84.2910,0.327,1111122 
COMPS,ioos:station:USF.COMPS:SHP:1,2014-06-01T18:30:00Z,30.0600,-84.2910,0.346,1111122 
COMPS,ioos:station:USF.COMPS:SHP:1,2014-06-01T18:36:00Z,30.0600,-84.2910,0.363,1111122 
COMPS,ioos:station:USF.COMPS:SHP:1,2014-06-01T18:42:00Z,30.0600,-84.2910,0.38,1111122 
COMPS,ioos:station:USF.COMPS:SHP:1,2014-06-01T18:48:00Z,30.0600,-84.2910,0.4,1111122 
COMPS,ioos:station:USF.COMPS:SHP:1,2014-06-01T18:54:00Z,30.0600,-84.2910,0.413,1111122 
COMPS,ioos:station:USF.COMPS:SHP:1,2014-06-01T19:00:00Z,30.0600,-84.2910,0.407,1111122 
COMPS,ioos:station:USF.COMPS:SHP:1,2014-06-01T19:06:00Z,30.0600,-84.2910,0.428,1111122 
COMPS,ioos:station:USF.COMPS:SHP:1,2014-06-01T19:12:00Z,30.0600,-84.2910,0.458,1111122 
COMPS,ioos:station:USF.COMPS:SHP:1,2014-06-01T19:18:00Z,30.0600,-84.2910,0.473,1111122 
COMPS,ioos:station:USF.COMPS:SHP:1,2014-06-01T19:24:00Z,30.0600,-84.2910,0.478,1111122 
COMPS,ioos:station:USF.COMPS:SHP:1,2014-06-01T19:30:00Z,30.0600,-84.2910,0.497,1111122 
COMPS,ioos:station:USF.COMPS:SHP:1,2014-06-01T19:36:00Z,30.0600,-84.2910,0.512,1111122 
COMPS,ioos:station:USF.COMPS:SHP:1,2014-06-01T19:42:00Z,30.0600,-84.2910,0.515,1111122 
COMPS,ioos:station:USF.COMPS:SHP:1,2014-06-01T19:48:00Z,30.0600,-84.2910,0.528,1111122 
COMPS,ioos:station:USF.COMPS:SHP:1,2014-06-01T19:54:00Z,30.0600,-84.2910,0.55,1111122 
COMPS,ioos:station:USF.COMPS:SHP:1,2014-06-01T20:00:00Z,30.0600,-84.2910,0.579,1111122 
COMPS,ioos:station:USF.COMPS:SHP:1,2014-06-01T20:06:00Z,30.0600,-84.2910,0.582,1111122 
COMPS,ioos:station:USF.COMPS:SHP:1,2014-06-01T20:12:00Z,30.0600,-84.2910,0.522,1111122 
COMPS,ioos:station:USF.COMPS:SHP:1,2014-06-01T20:18:00Z,30.0600,-84.2910,0.556,1111122 
COMPS,ioos:station:USF.COMPS:SHP:1,2014-06-01T20:24:00Z,30.0600,-84.2910,0.599,1111122 
COMPS,ioos:station:USF.COMPS:SHP:1,2014-06-01T20:30:00Z,30.0600,-84.2910,0.594,1111122 
COMPS,ioos:station:USF.COMPS:SHP:1,2014-06-01T20:36:00Z,30.0600,-84.2910,0.588,1111122 
COMPS,ioos:station:USF.COMPS:SHP:1,2014-06-01T20:42:00Z,30.0600,-84.2910,0.608,1111122 
COMPS,ioos:station:USF.COMPS:SHP:1,2014-06-01T20:48:00Z,30.0600,-84.2910,0.611,1111122 
COMPS,ioos:station:USF.COMPS:SHP:1,2014-06-01T20:54:00Z,30.0600,-84.2910,0.617,1111122 
COMPS,ioos:station:USF.COMPS:SHP:1,2014-06-01T21:00:00Z,30.0600,-84.2910,0.597,1111122 
COMPS,ioos:station:USF.COMPS:SHP:1,2014-06-01T21:06:00Z,30.0600,-84.2910,0.527,1111122 
COMPS,ioos:station:USF.COMPS:SHP:1,2014-06-01T21:12:00Z,30.0600,-84.2910,0.544,1111122 
COMPS,ioos:station:USF.COMPS:SHP:1,2014-06-01T21:18:00Z,30.0600,-84.2910,0.576,1111122 
COMPS,ioos:station:USF.COMPS:SHP:1,2014-06-01T21:24:00Z,30.0600,-84.2910,0.564,1111122 
COMPS,ioos:station:USF.COMPS:SHP:1,2014-06-01T21:30:00Z,30.0600,-84.2910,0.571,1111122 
COMPS,ioos:station:USF.COMPS:SHP:1,2014-06-01T21:36:00Z,30.0600,-84.2910,0.588,1111122 
COMPS,ioos:station:USF.COMPS:SHP:1,2014-06-01T21:42:00Z,30.0600,-84.2910,0.55,1111122 
COMPS,ioos:station:USF.COMPS:SHP:1,2014-06-01T21:48:00Z,30.0600,-84.2910,0.537,1111122 
COMPS,ioos:station:USF.COMPS:SHP:1,2014-06-01T21:54:00Z,30.0600,-84.2910,0.538,1111122 
COMPS,ioos:station:USF.COMPS:SHP:1,2014-06-01T22:00:00Z,30.0600,-84.2910,0.514,1111122 
COMPS,ioos:station:USF.COMPS:SHP:1,2014-06-01T22:06:00Z,30.0600,-84.2910,0.533,1111122 
COMPS,ioos:station:USF.COMPS:SHP:1,2014-06-01T22:12:00Z,30.0600,-84.2910,0.49,1111122 
COMPS,ioos:station:USF.COMPS:SHP:1,2014-06-01T22:18:00Z,30.0600,-84.2910,0.502,1111122 
COMPS,ioos:station:USF.COMPS:SHP:1,2014-06-01T22:24:00Z,30.0600,-84.2910,0.51,1111122 
COMPS,ioos:station:USF.COMPS:SHP:1,2014-06-01T22:30:00Z,30.0600,-84.2910,0.477,1111122 
COMPS,ioos:station:USF.COMPS:SHP:1,2014-06-01T22:36:00Z,30.0600,-84.2910,0.445,1111122 
COMPS,ioos:station:USF.COMPS:SHP:1,2014-06-01T22:42:00Z,30.0600,-84.2910,0.449,1111122 
COMPS,ioos:station:USF.COMPS:SHP:1,2014-06-01T22:48:00Z,30.0600,-84.2910,0.434,1111122 
COMPS,ioos:station:USF.COMPS:SHP:1,2014-06-01T22:54:00Z,30.0600,-84.2910,0.421,1111122 
COMPS,ioos:station:USF.COMPS:SHP:1,2014-06-01T23:00:00Z,30.0600,-84.2910,0.445,1111122 
COMPS,ioos:station:USF.COMPS:SHP:1,2014-06-01T23:06:00Z,30.0600,-84.2910,0.411,1111122 
COMPS,ioos:station:USF.COMPS:SHP:1,2014-06-01T23:12:00Z,30.0600,-84.2910,0.367,1111122 
COMPS,ioos:station:USF.COMPS:SHP:1,2014-06-01T23:18:00Z,30.0600,-84.2910,0.358,1111122 
COMPS,ioos:station:USF.COMPS:SHP:1,2014-06-01T23:24:00Z,30.0600,-84.2910,0.329,1111122 
COMPS,ioos:station:USF.COMPS:SHP:1,2014-06-01T23:30:00Z,30.0600,-84.2910,0.294,1111122 
COMPS,ioos:station:USF.COMPS:SHP:1,2014-06-01T23:36:00Z,30.0600,-84.2910,0.296,1111122 
COMPS,ioos:station:USF.COMPS:SHP:1,2014-06-01T23:42:00Z,30.0600,-84.2910,0.357,1111122 
COMPS,ioos:station:USF.COMPS:SHP:1,2014-06-01T23:48:00Z,30.0600,-84.2910,0.349,1111122 
COMPS,ioos:station:USF.COMPS:SHP:1,2014-06-01T23:54:00Z,30.0600,-84.2910,0.319,1111122 
COMPS,ioos:station:USF.COMPS:SHP:1,2014-06-02T00:00:00Z,30.0600,-84.2910,0.326,1111122 
COMPS,ioos:station:USF.COMPS:SHP:1,2014-06-02T00:06:00Z,30.0600,-84.2910,0.312,1111122 
COMPS,ioos:station:USF.COMPS:SHP:1,2014-06-02T00:12:00Z,30.0600,-84.2910,0.296,1111122 
COMPS,ioos:station:USF.COMPS:SHP:1,2014-06-02T00:18:00Z,30.0600,-84.2910,0.275,1111122 
COMPS,ioos:station:USF.COMPS:SHP:1,2014-06-02T00:24:00Z,30.0600,-84.2910,0.232,1111122 
COMPS,ioos:station:USF.COMPS:SHP:1,2014-06-02T00:30:00Z,30.0600,-84.2910,0.19,1111122 
COMPS,ioos:station:USF.COMPS:SHP:1,2014-06-02T00:36:00Z,30.0600,-84.2910,0.169,1111122 
COMPS,ioos:station:USF.COMPS:SHP:1,2014-06-02T00:42:00Z,30.0600,-84.2910,0.154,1111122 
COMPS,ioos:station:USF.COMPS:SHP:1,2014-06-02T00:48:00Z,30.0600,-84.2910,0.123,1111122 
COMPS,ioos:station:USF.COMPS:SHP:1,2014-06-02T00:54:00Z,30.0600,-84.2910,0.078,1111122 
COMPS,ioos:station:USF.COMPS:SHP:1,2014-06-02T01:00:00Z,30.0600,-84.2910,0.048,1111122 
COMPS,ioos:station:USF.COMPS:SHP:1,2014-06-02T01:06:00Z,30.0600,-84.2910,0.031,1111122 
COMPS,ioos:station:USF.COMPS:SHP:1,2014-06-02T01:12:00Z,30.0600,-84.2910,0.003,1111122 
COMPS,ioos:station:USF.COMPS:SHP:1,2014-06-02T01:18:00Z,30.0600,-84.2910,-0.028,1111122 
COMPS,ioos:station:USF.COMPS:SHP:1,2014-06-02T01:24:00Z,30.0600,-84.2910,-0.049,1111122 
COMPS,ioos:station:USF.COMPS:SHP:1,2014-06-02T01:30:00Z,30.0600,-84.2910,-0.069,1111122 
COMPS,ioos:station:USF.COMPS:SHP:1,2014-06-02T01:36:00Z,30.0600,-84.2910,-0.089,1111122 
COMPS,ioos:station:USF.COMPS:SHP:1,2014-06-02T01:42:00Z,30.0600,-84.2910,-0.108,1111122 
COMPS,ioos:station:USF.COMPS:SHP:1,2014-06-02T01:48:00Z,30.0600,-84.2910,-0.132,1111122 
COMPS,ioos:station:USF.COMPS:SHP:1,2014-06-02T01:54:00Z,30.0600,-84.2910,-0.157,1111122 
COMPS,ioos:station:USF.COMPS:SHP:1,2014-06-02T02:00:00Z,30.0600,-84.2910,-0.177,1111122 
COMPS,ioos:station:USF.COMPS:SHP:1,2014-06-02T02:06:00Z,30.0600,-84.2910,-0.197,1111122 
COMPS,ioos:station:USF.COMPS:SHP:1,2014-06-02T02:12:00Z,30.0600,-84.2910,-0.219,1111122 
COMPS,ioos:station:USF.COMPS:SHP:1,2014-06-02T02:18:00Z,30.0600,-84.2910,-0.243,1111122 
COMPS,ioos:station:USF.COMPS:SHP:1,2014-06-02T02:24:00Z,30.0600,-84.2910,-0.261,1111122 
COMPS,ioos:station:USF.COMPS:SHP:1,2014-06-02T02:30:00Z,30.0600,-84.2910,-0.28,1111122 
COMPS,ioos:station:USF.COMPS:SHP:1,2014-06-02T02:36:00Z,30.0600,-84.2910,-0.3,1111122 
COMPS,ioos:station:USF.COMPS:SHP:1,2014-06-02T02:42:00Z,30.0600,-84.2910,-0.318,1111122 
COMPS,ioos:station:USF.COMPS:SHP:1,2014-06-02T02:48:00Z,30.0600,-84.2910,-0.335,1111122 
COMPS,ioos:station:USF.COMPS:SHP:1,2014-06-02T02:54:00Z,30.0600,-84.2910,-0.353,1111122 
COMPS,ioos:station:USF.COMPS:SHP:1,2014-06-02T03:00:00Z,30.0600,-84.2910,-0.364,1111122 